Santiago, Dominican Republic

5:45 PM AST on January 24, 2017 (GMT -0400)
Cibao International

Weather History for MDST - January, 2013

Change the Weather History Date:

Tuesday, January 8, 2013

  Actual Average Record
Temperature  
Mean Temperature 73 °F -  
Max Temperature 82 °F 84 °F 88 °F (2016)
Min Temperature 64 °F 65 °F 32 °F (2008)
Cooling Degree Days 8    
Growing Degree Days 23 (Base 50)    
Moisture  
Dew Point 69 °F    
Average Humidity 88    
Maximum Humidity 100    
Minimum Humidity 58    
Precipitation  
Precipitation 0.00 in 0.06 in - ()
Sea Level Pressure  
Sea Level Pressure 30.09 in    
Wind  
Wind Speed 7 mph ()    
Max Wind Speed 16 mph    
Max Gust Speed -    
Visibility 6.0 miles    
Events Rain    
Averages and records for this station are not official NWS values.
T = Trace of Precipitation, MM = Missing Value Source: Averaged Metar Reports

Daily Weather History Graph

Daily Weather History Graph

Search for Another Location

Airport or City:

Trip Planner

Search our weather history database for the weather conditions in past years. The results will help you decide how hot, cold, wet, or windy it might be!

Date:

Astronomy

Jan. 08, 2013 Rise Set
Actual Time 7:18 AM AST 6:20 PM AST
Civil Twilight 6:55 AM AST 6:44 PM AST
Nautical Twilight 6:27 AM AST 7:11 PM AST
Astronomical Twilight 6:01 AM AST 7:38 PM AST
Moon 3:51 AM AST (1/8) 3:18 PM AST (1/8)
Length of Visible Light 11h 49m
Length of Day
11h 01m
Waning Crescent, 14% of the Moon is Illuminated
Jan 8
Waning Crescent
Jan 11
New
Jan 18
First Quarter
Jan 27
Full
Feb 3
Last Quarter

Hourly Weather History & Observations

Time (AST) Temp. Heat Index Dew Point Humidity Pressure Visibility Wind Dir Wind Speed Gust Speed Precip Events Conditions
12:00 AM 71.6 °F - 71.6 °F 100% 30.09 in 6.2 mi ESE 11.5 mph - N/A   Scattered Clouds
1:00 AM 71.6 °F - 71.6 °F 100% 30.09 in 6.2 mi ESE 8.1 mph - N/A   Scattered Clouds
2:00 AM 69.8 °F - 69.8 °F 100% 30.09 in 6.2 mi ESE 6.9 mph - N/A   Scattered Clouds
3:00 AM 68.0 °F - 68.0 °F 100% 30.06 in 6.2 mi ESE 5.8 mph - N/A   Scattered Clouds
4:00 AM 68.0 °F - 68.0 °F 100% 30.06 in 6.2 mi East 5.8 mph - N/A   Scattered Clouds
5:00 AM 68.0 °F - 68.0 °F 100% 30.04 in 6.2 mi Calm Calm - N/A   Scattered Clouds
6:00 AM 66.2 °F - 66.2 °F 100% 30.06 in 6.2 mi East 4.6 mph - N/A   Scattered Clouds
7:00 AM 66.2 °F - 66.2 °F 100% 30.09 in 6.2 mi Calm Calm - N/A   Scattered Clouds
8:00 AM 64.4 °F - 64.4 °F 100% 30.09 in 6.2 mi Calm Calm - N/A   Scattered Clouds
9:00 AM 71.6 °F - 69.8 °F 94% 30.12 in 6.2 mi Calm Calm - N/A   Scattered Clouds
10:00 AM 75.2 °F - 71.6 °F 89% 30.12 in 6.2 mi ESE 6.9 mph - N/A   Scattered Clouds
11:00 AM 71.6 °F - 69.8 °F 94% 30.12 in 3.1 mi East 15.0 mph - N/A Rain Rain
12:00 PM 71.6 °F - 71.6 °F 100% 30.12 in 4.3 mi East 9.2 mph - N/A Rain Light Rain
1:00 PM 75.2 °F - 73.4 °F 94% 30.09 in 6.2 mi East 9.2 mph - N/A   Mostly Cloudy
2:00 PM 77 °F - 72 °F 79% 30.08 in 6 mi ESE 15.7 mph - -   Haze
2:00 PM 77.0 °F - 71.6 °F 83% 30.06 in 6.2 mi ESE 16.1 mph - N/A   Scattered Clouds
3:00 PM 80.6 °F 83.2 °F 68.0 °F 65% 30.04 in 6.2 mi ESE 15.0 mph - N/A   Scattered Clouds
4:00 PM 82.4 °F 85.4 °F 68.0 °F 62% 30.04 in 6.2 mi East 15.0 mph - N/A   Partly Cloudy
5:00 PM 82.4 °F 84.6 °F 66.2 °F 58% 30.06 in 6.2 mi ESE 15.0 mph - N/A   Partly Cloudy
6:00 PM 80.6 °F 83.2 °F 68.0 °F 65% 30.06 in 6.2 mi East 13.8 mph - N/A   Partly Cloudy
7:00 PM 77.0 °F - 69.8 °F 78% 30.09 in 6.2 mi ESE 11.5 mph - N/A   Scattered Clouds
8:00 PM 75 °F - 69 °F 75%  in 6 mi SE 6.7 mph - -  
8:00 PM 75.2 °F - 68.0 °F 78% 30.09 in 6.2 mi SE 6.9 mph - N/A   Partly Cloudy
9:00 PM 73.4 °F - 69.8 °F 88% 30.12 in 6.2 mi SSE 6.9 mph - N/A   Partly Cloudy
10:00 PM 73.4 °F - 71.6 °F 94% 30.15 in 6.2 mi SE 4.6 mph - N/A   Partly Cloudy
11:00 PM 71.6 °F - 69.8 °F 94% 30.15 in 6.2 mi ESE 4.6 mph - N/A   Partly Cloudy